{"data":{"norad_id":66797,"intl_designator":"2025-278G","name":"STARLINK-36099","alt_names":[],"object_type":"PAYLOAD","status":"ACTIVE","operator":null,"country":"US","launch_date":"2025-12-01","launch_site_code":"AFETR","launch_vehicle":null,"mission":null,"orbit_class":"UNKNOWN","rcs_meters":null,"size_class":null,"mass_kg":null,"dimensions":null,"purposes":["comms"],"wikipedia_slug":null,"has_3d_model":false,"image_url":null,"decayed_at":null,"tle_current":{"epoch":"2026-09-19T22:01:06.277728Z","epoch_age_seconds":136903,"freshness":"FRESH","line1":"1 66797U 25278G   26262.91743377  .00008478  00000+0  31717-3 0  9996","line2":"2 66797  43.0022  97.4808 0001204 268.1971  91.8743 15.27587279 44918","mean_motion":15.27587279,"eccentricity":0.0001204,"inclination_deg":43.0022,"raan_deg":97.4808,"arg_perigee_deg":268.1971,"mean_anomaly_deg":91.8743,"bstar":0.00031717,"rev_number":4491,"period_min":94.266299529717,"perigee_km":482.20121599985,"apogee_km":483.85338436334,"semimajor_km":6861.1643001816,"source":"CELESTRAK","updated_at":"2026-09-21T09:00:36.014572Z"}}}